Location: Chuathbaluk
(61.5726°N, 159.2454°W)
Time: 11:10:11
(UTC+00:00)

Explorer 7 - Pass Details

Date: 01 December 2020
Orbit: 484 x 678 km, 50.3° (Epoch: 17 January)

Event Time Altitude Azimuth Distance (km) Brightness Sun altitude
Exits shadow 16:05:35 13° 195° (SSW) 1,640 9.1 -21.6°
Drops below altitude 10° 16:07:07 10° 173° (S) 1,811 9.6 -21.4°
Sets 16:10:16 0° 146° (SE) 2,656 10.9 -21.1°
